[[{"header":{"parameterUnit":"m.s-1","parameterCategory":1,"la1":30.2991,"la2":30.254,"lo1":-89.0895,"lo2":-89.0444,"dy":0.0017,"dx":0.0017,"nx":28,"ny":28,"refTime":"2025-12-15T09:00:00:Z","depth":0,"parameterNumber":2,"parameterNumberName":"U-component_of_WINDS"},"data":[0,0,0,0,0,0,0,0,0,0,0,0,0,0,0,0,0,0,0,0,0,0,0,0,0,0,0,0,0,0,0,0,0,0,0,0,0,0,0,0,0,0,0,0,0,0,0,0,0,0,0,0,0,0,0,0,0,0,-2.9842,-2.9843,0,-2.9874,-2.9875,-2.9875,-2.9799,-2.9797,-2.9794,-2.9792,-2.9824,-2.9827,-2.983,0,0,0,0,0,0,0,0,0,0,0,0,0,-2.9713,-2.9716,-2.9842,-2.9843,-2.9843,-2.9874,-2.9875,-2.9875,-2.98,-2.9797,-2.9794,-2.9791,-2.9823,-2.9826,-2.983,0,0,0,0,0,0,0,0,0,0,0,0,0,-2.976,-2.9717,-2.9842,-2.9809,-2.9807,-2.9874,-2.9875,-2.9875,-2.98,-2.9797,-2.9793,-2.979,-2.9822,-2.9826,-2.9831,-2.9931,0,0,-2.9845,-2.9847,0,0,0,0,0,0,0,0,-2.9757,-2.9765,-2.9814,-2.9812,-2.9809,-2.9829,-2.9841,-2.9894,-2.9801,-2.9803,-2.9792,-2.9788,-2.9828,-2.9832,-2.9846,-2.9933,-2.9934,-2.9845,-2.9848,-2.985,-2.9851,0,0,0,0,0,0,0,-2.9754,-2.9763,-2.9855,-2.9814,-2.9811,-2.9792,-2.9795,-2.9851,-2.9835,-2.9802,-2.9797,-2.9802,-2.9826,-2.9842,-2.9846,-2.9935,-2.9845,-2.9849,-2.9852,-2.9854,-3.0104,-3.0108,0,0,0,0,0,0,-2.9755,-2.9761,-2.9854,-2.9856,-2.9774,-2.9797,-2.98,-2.9826,-2.9834,-2.9832,-2.9805,-2.9798,-2.9836,-2.9841,-2.9847,-2.9964,-2.985,-2.9854,-2.9857,-3.01,-3.0105,-3.0109,0,0,0,0,0,0,-2.9753,-2.9765,-2.9852,-2.9807,-2.9817,-2.9803,-2.9833,-2.9829,-2.9844,-2.9836,-2.9833,-2.9824,-2.9833,-2.9841,-2.9911,-2.9964,-2.9856,-2.9861,-3.0096,-3.0102,-3.0107,-3.0201,0,0,0,0,0,0,-2.975,-2.9764,-2.9803,-2.9808,-2.9819,-2.9917,-2.9837,-2.9832,-2.9852,-2.9844,-2.9853,-2.9851,-2.9831,-2.9904,-2.9915,-2.9969,-2.9864,-3.0091,-3.0099,-3.0105,-3.0193,-3.0209,-3.0223,0,0,0,0,0,-2.9745,-2.9828,-2.9805,-2.9817,-2.9867,-2.992,-2.9926,-2.9901,-2.9857,-2.9895,-2.989,-2.9851,-2.9957,-2.9912,-2.9924,-2.998,-3.0087,-3.0096,-3.0105,-3.0186,-3.0206,-3.0223,0,0,0,0,0,0,-2.9828,-2.9828,-2.9803,-2.989,-2.9905,-2.9907,-2.9954,-2.9923,-2.9951,-2.9942,-2.991,-2.9913,-2.9989,-2.9991,-2.9941,-3.0077,-3.0015,-3.0026,-3.0072,-3.0091,-3.0106,-3.0103,-2.9868,0,0,0,0,0,-2.9857,-2.99,-2.9897,-2.9974,-2.9983,-2.9968,-2.999,-2.9969,-2.9984,-2.999,-2.999,-3.0006,-3.0042,-3.0067,-3.01,-3.0193,-3.0193,-3.0237,-3.0253,-3.0265,-3.0275,-3.0323,-3.0342,-3.0138,-3.0138,-3.0138,0,0,-2.9916,-2.9921,-2.995,-2.9991,-3.0001,-3.0045,-2.9974,-3.0024,-3.0057,-2.9998,-3.0063,-3.0064,-3.0079,-3.0161,-3.0197,-3.0165,-3.0331,-3.0276,-3.0286,-3.0289,-3.0334,-3.0353,-3.037,-3.0144,-3.0143,-3.0142,0,0,-3.0046,-3.0055,-3.0119,-3.0131,-3.0147,-3.0136,-3.0152,-3.0158,-3.0156,-3.0222,-3.0178,-3.0216,-3.0281,-3.0293,-3.0307,-3.0442,-3.0406,-3.0454,-3.0532,-3.0579,-3.0595,-3.0609,-3.0656,-3.0673,-3.0464,-3.0464,-3.0465,0,-3.0117,-3.0183,-3.0156,-3.021,-3.0228,-3.0178,-3.0242,-3.0254,-3.028,-3.0294,-3.0258,-3.0337,-3.0344,-3.0427,-3.046,-3.0474,-3.049,-3.0452,-3.0595,-3.0609,-3.0622,-3.0666,-3.0684,-3.047,-3.0469,-3.0469,-3.0468,0,-3.0269,-3.0316,-3.0366,-3.0392,-3.0417,-3.0475,-3.0457,-3.0484,-3.0462,-3.0455,-3.0522,-3.0528,-3.0562,-3.058,-3.0559,-3.066,-3.064,-3.0601,-3.0537,-3.0647,-3.0688,-3.0705,-3.0478,-3.0476,-3.0474,-3.0473,0,0,-3.0452,-3.0463,-3.0481,-3.0492,-3.0506,-3.0541,-3.0597,-3.063,-3.0654,-3.0674,-3.0719,-3.0775,-3.0738,-3.0755,-3.0735,-3.0776,-3.0881,-3.0732,-3.0731,-3.0758,-3.0991,-3.1019,-3.1039,-3.0858,-3.0861,-3.0864,-3.0989,0,-3.0579,-3.0676,-3.0653,-3.0748,-3.079,-3.0742,-3.0791,-3.0805,-3.0799,-3.0833,-3.0827,-3.0867,-3.0817,-3.0826,-3.0865,-3.086,-3.0927,-3.0851,-3.0898,-3.09,-3.0894,-3.1061,-3.1091,-3.1209,-3.1005,-3.1008,-3.101,0,-3.074,-3.0766,-3.0866,-3.0872,-3.0889,-3.0933,-3.0961,-3.0995,-3.1009,-3.1002,-3.1021,-3.0992,-3.1046,-3.0984,-3.1058,-3.1006,-3.1024,-3.1025,-3.1029,-3.1031,-3.0961,-3.1066,-3.1247,-3.1264,-3.1035,-3.1033,-3.1031,0,-3.0861,-3.0922,-3.0988,-3.1,-3.1009,-3.1041,-3.1046,-3.1057,-3.1078,-3.1102,-3.1115,-3.1146,-3.1162,-3.1186,-3.1166,-3.1123,-3.1243,-3.1179,-3.1237,-3.1238,-3.1263,-3.1262,-3.1448,-3.1279,-3.1278,-3.1278,-3.1278,0,-3.1005,-3.1067,-3.1043,-3.1084,-3.1152,-3.1125,-3.1193,-3.1193,-3.1203,-3.1242,-3.1203,-3.1241,-3.1213,-3.1248,-3.1233,-3.1296,-3.1304,-3.1299,-3.1294,-3.1301,-3.1302,-3.1311,-3.1302,-3.1283,-3.1282,-3.1281,-3.128,0,-3.1151,-3.1137,-3.1207,-3.121,-3.1213,-3.1263,-3.1265,-3.1303,-3.1295,-3.1345,-3.1355,-3.1343,-3.1382,-3.1365,-3.1407,-3.1396,-3.1476,-3.1461,-3.1471,-3.1467,-3.1526,-3.152,-3.1723,-3.1748,-3.1565,-3.1566,-3.1568,0,-3.1243,-3.1289,-3.1298,-3.1322,-3.133,-3.1369,-3.139,-3.1366,-3.139,-3.1409,-3.1444,-3.148,-3.1507,-3.1572,-3.1566,-3.1598,-3.1582,-3.1651,-3.1586,-3.1592,-3.158,-3.1577,-3.1581,-3.1663,-3.1665,-3.1667,-3.1669,0,-3.1406,-3.1397,-3.1429,-3.146,-3.1486,-3.1509,-3.1528,-3.1549,-3.1526,-3.1554,-3.1594,-3.1615,-3.1658,-3.1693,-3.1721,-3.1725,-3.1693,-3.1689,-3.1704,-3.1711,-3.1715,-3.1712,-3.1505,-3.1684,-3.1683,-3.1682,-3.1681,-3.168,-3.1526,-3.1565,-3.1577,-3.1614,-3.1626,-3.1645,-3.168,-3.1677,-3.171,-3.1742,-3.1726,-3.1772,-3.1784,-3.1818,-3.1827,-3.1862,-3.1834,-3.1857,-3.1862,-3.1867,-3.1874,-3.1711,-3.1867,-3.1867,-3.1866,-3.1866,-3.1865,0,-3.1686,-3.1692,-3.1726,-3.1754,-3.1783,-3.1751,-3.1771,-3.1797,-3.1838,-3.1852,-3.188,-3.1925,-3.196,-3.1957,-3.1989,-3.2017,-3.2003,-3.2026,-3.2022,-3.2024,-3.1898,-3.1881,-3.2037,-3.2037,-3.2037,-3.2037,-3.2037,-3.2037,-3.1772,-3.1836,-3.1828,-3.1897,-3.1902,-3.1947,-3.1961,-3.1977,-3.1989,-3.2041,-3.207,-3.2068,-3.2075,-3.2107,-3.2137,-3.2135,-3.2147,-3.2176,-3.2168,-3.205,-3.2033,-3.2017,-3.2,-3.2179,-3.2179,-3.2291,-3.2292,-3.2293]},{"header":{"parameterUnit":"m.s-1","parameterCategory":1,"la1":30.2991,"la2":30.254,"lo1":-89.0895,"lo2":-89.0444,"dy":0.0017,"dx":0.0017,"nx":28,"ny":28,"refTime":"2025-12-15T09:00:00:Z","depth":0,"parameterNumber":3,"parameterNumberName":"V-component_of_WINDS"},"data":[0,0,0,0,0,0,0,0,0,0,0,0,0,0,0,0,0,0,0,0,0,0,0,0,0,0,0,0,0,0,0,0,0,0,0,0,0,0,0,0,0,0,0,0,0,0,0,0,0,0,0,0,0,0,0,0,0,0,-0.6692,-0.6692,0,-0.6655,-0.6655,-0.6655,-0.6628,-0.6628,-0.6628,-0.6627,-0.659,-0.659,-0.6589,0,0,0,0,0,0,0,0,0,0,0,0,0,-0.6738,-0.6737,-0.6692,-0.6692,-0.6691,-0.6655,-0.6655,-0.6654,-0.6628,-0.6628,-0.6628,-0.6627,-0.6591,-0.659,-0.6589,0,0,0,0,0,0,0,0,0,0,0,0,0,-0.6711,-0.6737,-0.6692,-0.6674,-0.6672,-0.6656,-0.6655,-0.6654,-0.6628,-0.6628,-0.6628,-0.6627,-0.6591,-0.659,-0.6589,-0.6588,0,0,-0.6585,-0.6585,0,0,0,0,0,0,0,0,-0.6713,-0.671,-0.6677,-0.6675,-0.6673,-0.6646,-0.6658,-0.6632,-0.6628,-0.6645,-0.6627,-0.6627,-0.6609,-0.6607,-0.66,-0.6586,-0.6585,-0.6585,-0.6584,-0.6584,-0.6584,0,0,0,0,0,0,0,-0.6715,-0.6711,-0.6678,-0.6676,-0.6674,-0.6667,-0.6663,-0.6653,-0.6629,-0.6643,-0.6641,-0.6637,-0.6608,-0.6602,-0.6599,-0.6584,-0.6585,-0.6584,-0.6583,-0.6583,-0.6566,-0.6566,0,0,0,0,0,0,-0.672,-0.6713,-0.6679,-0.6676,-0.6692,-0.6666,-0.6662,-0.6655,-0.6629,-0.6625,-0.6638,-0.6636,-0.6604,-0.6601,-0.6598,-0.6594,-0.6584,-0.6583,-0.6582,-0.6566,-0.6566,-0.6566,0,0,0,0,0,0,-0.6721,-0.6717,-0.668,-0.6694,-0.6689,-0.6666,-0.6658,-0.6654,-0.6648,-0.6625,-0.6621,-0.6635,-0.6603,-0.66,-0.659,-0.6593,-0.6582,-0.6581,-0.6565,-0.6566,-0.6566,-0.6588,0,0,0,0,0,0,-0.6722,-0.6717,-0.6717,-0.6694,-0.6688,-0.6674,-0.6659,-0.6654,-0.6646,-0.6644,-0.6622,-0.6618,-0.6603,-0.6592,-0.6589,-0.6591,-0.658,-0.6565,-0.6566,-0.6566,-0.6587,-0.6589,-0.6591,0,0,0,0,0,-0.6724,-0.6726,-0.6718,-0.6714,-0.6688,-0.6674,-0.667,-0.6653,-0.6646,-0.6646,-0.6631,-0.6619,-0.6593,-0.6591,-0.6588,-0.6589,-0.6565,-0.6565,-0.6566,-0.6586,-0.6589,-0.6591,0,0,0,0,0,0,-0.675,-0.6722,-0.6713,-0.6707,-0.6693,-0.6669,-0.6668,-0.6656,-0.6644,-0.6642,-0.6621,-0.6617,-0.6609,-0.6598,-0.6597,-0.6586,-0.6577,-0.6577,-0.6594,-0.6596,-0.6598,-0.6601,-0.6579,0,0,0,0,0,-0.6755,-0.6746,-0.6722,-0.6719,-0.6713,-0.6692,-0.6685,-0.6673,-0.6657,-0.6651,-0.6635,-0.6621,-0.6609,-0.6602,-0.659,-0.6585,-0.6579,-0.6584,-0.6586,-0.6588,-0.6588,-0.6583,-0.6584,-0.6568,-0.6568,-0.6568,0,0,-0.6765,-0.6749,-0.6745,-0.6724,-0.6712,-0.6702,-0.6687,-0.6678,-0.6671,-0.665,-0.664,-0.6627,-0.661,-0.6602,-0.6598,-0.6593,-0.6591,-0.6588,-0.659,-0.6589,-0.6583,-0.6585,-0.6586,-0.6568,-0.6568,-0.6568,0,0,-0.6779,-0.6767,-0.6762,-0.6749,-0.673,-0.6716,-0.6715,-0.6693,-0.6684,-0.6673,-0.6656,-0.6647,-0.6628,-0.6616,-0.6607,-0.6614,-0.6602,-0.6611,-0.6621,-0.6616,-0.6617,-0.6618,-0.662,-0.6621,-0.6611,-0.6611,-0.6611,0,-0.6795,-0.678,-0.6761,-0.6753,-0.6744,-0.6723,-0.6718,-0.6707,-0.6685,-0.6679,-0.6673,-0.6648,-0.6634,-0.6623,-0.6624,-0.6618,-0.6615,-0.6613,-0.6619,-0.662,-0.662,-0.6621,-0.6622,-0.6612,-0.6612,-0.6612,-0.6612,0,-0.68,-0.679,-0.6788,-0.6767,-0.6757,-0.6751,-0.673,-0.6723,-0.6711,-0.6697,-0.6685,-0.6668,-0.6652,-0.6648,-0.6637,-0.6634,-0.6632,-0.6623,-0.6613,-0.6623,-0.6624,-0.6624,-0.6614,-0.6613,-0.6613,-0.6613,0,0,-0.683,-0.6797,-0.6797,-0.6786,-0.6763,-0.6754,-0.6746,-0.673,-0.6723,-0.6709,-0.67,-0.6684,-0.6675,-0.6665,-0.6651,-0.6647,-0.6652,-0.6639,-0.6638,-0.6641,-0.6647,-0.6654,-0.6655,-0.6644,-0.6644,-0.6644,-0.6648,0,-0.684,-0.6824,-0.6806,-0.6796,-0.6786,-0.6765,-0.6758,-0.6743,-0.6729,-0.6718,-0.6703,-0.6691,-0.6681,-0.6674,-0.6669,-0.6653,-0.6653,-0.6652,-0.6636,-0.6636,-0.6641,-0.6655,-0.6662,-0.6667,-0.6649,-0.6649,-0.6649,0,-0.6849,-0.6835,-0.6824,-0.68,-0.6795,-0.6789,-0.6771,-0.6761,-0.6743,-0.6733,-0.6721,-0.6706,-0.6695,-0.6687,-0.6671,-0.6671,-0.6663,-0.6654,-0.6654,-0.6651,-0.6643,-0.6652,-0.6668,-0.6669,-0.6649,-0.6649,-0.6649,0,-0.6871,-0.6849,-0.6839,-0.6831,-0.6803,-0.6799,-0.6787,-0.6768,-0.6759,-0.6743,-0.6737,-0.672,-0.6711,-0.6699,-0.668,-0.6676,-0.6666,-0.6656,-0.6657,-0.6657,-0.6656,-0.6656,-0.667,-0.6651,-0.6651,-0.6651,-0.6651,0,-0.6884,-0.6878,-0.6848,-0.6842,-0.6834,-0.6813,-0.6805,-0.6792,-0.6775,-0.6765,-0.6747,-0.6738,-0.6714,-0.6702,-0.6687,-0.6676,-0.6672,-0.6663,-0.6659,-0.6664,-0.6665,-0.6659,-0.6658,-0.6652,-0.6652,-0.6652,-0.6652,0,-0.6907,-0.6887,-0.6875,-0.6849,-0.6842,-0.6837,-0.6815,-0.6808,-0.6793,-0.678,-0.6776,-0.6753,-0.6737,-0.6717,-0.6696,-0.6686,-0.6676,-0.667,-0.6682,-0.668,-0.6681,-0.6681,-0.6691,-0.669,-0.6673,-0.6673,-0.6674,0,-0.6916,-0.691,-0.6884,-0.6876,-0.6864,-0.6852,-0.6842,-0.682,-0.6811,-0.6788,-0.6783,-0.6767,-0.6752,-0.6729,-0.6709,-0.6693,-0.6686,-0.669,-0.6683,-0.6688,-0.6685,-0.6685,-0.6684,-0.6692,-0.6692,-0.6693,-0.6693,0,-0.6934,-0.6924,-0.691,-0.6893,-0.6881,-0.6866,-0.6851,-0.6845,-0.682,-0.681,-0.6794,-0.6783,-0.676,-0.6744,-0.6724,-0.6711,-0.6697,-0.6695,-0.6694,-0.6699,-0.6706,-0.6702,-0.6686,-0.6695,-0.6695,-0.6695,-0.6695,-0.6694,-0.6949,-0.6943,-0.6923,-0.6908,-0.6894,-0.6879,-0.6871,-0.6854,-0.684,-0.682,-0.6808,-0.6792,-0.6772,-0.6744,-0.6732,-0.6719,-0.6714,-0.6713,-0.6712,-0.6712,-0.6713,-0.6709,-0.6715,-0.6715,-0.6715,-0.6715,-0.6715,0,-0.6965,-0.6951,-0.6937,-0.6916,-0.6904,-0.6891,-0.6873,-0.6864,-0.685,-0.6833,-0.6818,-0.6799,-0.6782,-0.6761,-0.6743,-0.6736,-0.6729,-0.6732,-0.6732,-0.6729,-0.672,-0.6722,-0.6738,-0.6738,-0.6738,-0.6738,-0.6738,-0.6738,-0.6972,-0.6961,-0.6948,-0.6929,-0.6914,-0.6898,-0.6889,-0.6875,-0.686,-0.684,-0.6826,-0.6812,-0.6792,-0.6772,-0.6756,-0.675,-0.6744,-0.6748,-0.674,-0.6732,-0.673,-0.6728,-0.673,-0.6747,-0.6747,-0.675,-0.675,-0.675]}]]